DMSP 5D-2 F13 DEB, 42265

Orbit data source: Space-Track

DMSP 5D-2 F13 DEB, 42265 is space debris in SSO originally from a launch on Fri, 24 Mar 1995 UTC launched from the Air Force Western Test Range (AFWTR). Debris objects in space refer to the collection of defunct objects orbiting the Earth. Examples of debris include non-operational satellites, rocket bodies, and fragments generated from explosions, collisions, or faulty payload assembly.

Loading next visibility...
DMSP 5D-2 F13 DEB details
Identifier
42265, 1995-015GF
Orbit
SSO
Last TLE update5 days ago
Origin
Flag of USUSAF SMC (US)
ManufacturerUnknown
MissionSpacecraft
Bus & MotorUnknown
MassUnknown
Launch date (UTC)
1995-03-24 (30 years ago)
Launch vehicleUnknown
Launch site
Air Force Western Test Range (AFWTR)
Object type
Payload
Rocket body
Debris
Shape & HBRUnknown
Radar Cross SectionSmall (<0.1 m²)

Expand to show TLE details & history

TLE from 5 days ago
0 DMSP 5D-2 F13 DEB
1 42265U 95015GF  24332.32823307  .00011465  00000-0  43076-2 0  9990
2 42265  98.7234 355.3588 0004415 245.1129 114.9595 14.31704889467263
Epoch: 2024-11-27T07:52Z
Definitive object data (Epoch: 2024-11-27T07:52:39.337Z)
Latitude-0.00003°
Longitude170.46947°
Altitude790.304 km
Speed7.458 km/s
True Right ascension23h 41m 26s
True Declination0° 00' 00"
Sunlit
Object was in daylight at TLE epoch
Visualization TLE readout
Latitude-60.24128°
Longitude-169.0046°
Altitude807.679 km
Speed7.449 km/s
Apparent Right ascension20h 50m 07s
Apparent Declination-62° 40' 02"
Sunlit
Object is in daylight
Visualization observer readout
Local Sidereal Time06:07:16
Azimuth213.179° SW
Elevation-56.822°
Doppler factor1
Orbital elements
Apogee altitude786.343 km
Perigee altitude780.02 km
Semi-major axis7,161.318 km
Eccentricity0.0004415
Inclination98.7234°
RAAN355.3588°
Arg. of periapsis245.1129°
True anomaly115.00536°
Mean anomaly114.9595°
Eccentric anomaly114.98243°
Mean motion3.58141 °/min
BSTAR0.0043076
Orbital period100.52 mins
Loading maneuver chart data...

DMSP 5D-2 F13 DEB Visibility forecast

Observer location: undefined°, undefined

Span
Click to sort rows by Start time (UTC) header in descending order
Start Az.
Max El. time (UTC)
Max El. Az.
Max El.
End time (UTC)
End Az.
9 mins2024-12-02 14:15:03.516Z26.42° NE2024-12-02 14:19:03.516Z86.923° E37.78°2024-12-02 14:24:03.516Z175.562° S
5 mins2024-12-02 15:56:03.516Z328.398° NNW2024-12-02 15:58:03.516Z300.881° NW18.427°2024-12-02 16:01:03.516Z259.927° W
8 mins2024-12-03 01:32:03.516Z155.895° SSE2024-12-03 01:36:03.516Z59.062° ENE43.668°2024-12-03 01:40:03.516Z351.788° N
|